This is the latest recevied weather packets stored in our database for station/object KK6LVQ-13. If no packets are shown the sender has not sent any weather packets the latest 10 day(s).
| Time | Temp. | Humidity | Pressure | Rain* | Wind** | Luminosity | Snow |
|---|---|---|---|---|---|---|---|
| 1777694075 | 11.67° C | 94% | 1018.2 hPa | 0 mm | - | 0 W/m² | - |
| 1777693773 | 11.67° C | 94% | 1018.2 hPa | 0 mm | - | 0 W/m² | - |
| 1777693471 | 11.67° C | 93% | 1018.2 hPa | 0 mm | - | 0 W/m² | - |
| 1777693169 | 11.67° C | 93% | 1018 hPa | 0 mm | - | 0 W/m² | - |
| 1777692866 | 11.67° C | 93% | 1018 hPa | 0 mm | - | 0 W/m² | - |
| 1777692563 | 12.22° C | 92% | 1018 hPa | 0 mm | - | 0 W/m² | - |
| 1777692260 | 12.22° C | 92% | 1018.2 hPa | 0 mm | - | 0 W/m² | - |
| 1777691956 | 12.22° C | 91% | 1018 hPa | 0 mm | - | 0 W/m² | - |
| 1777691656 | 12.22° C | 91% | 1018.2 hPa | 0 mm | - | 0 W/m² | - |
| 1777691353 | 12.22° C | 90% | 1017.8 hPa | 0 mm | - | 1 W/m² | - |
| 1777691051 | 12.78° C | 90% | 1017.8 hPa | 0 mm | - | 1 W/m² | - |
| 1777690749 | 12.78° C | 89% | 1017.7 hPa | 0 mm | - | 2 W/m² | - |
| 1777690445 | 13.33° C | 88% | 1017.7 hPa | 0 mm | - | 4 W/m² | - |
| 1777690143 | 13.33° C | 88% | 1017.7 hPa | 0 mm | - | 6 W/m² | - |
| 1777689841 | 13.33° C | 87% | 1017.6 hPa | 0 mm | - | 9 W/m² | - |
| 1777689539 | 13.89° C | 86% | 1017.7 hPa | 0 mm | - | 12 W/m² | - |
| 1777689236 | 13.89° C | 85% | 1017.5 hPa | 0 mm | - | 15 W/m² | - |
| 1777688934 | 14.44° C | 84% | 1017.3 hPa | 0 mm | - | 18 W/m² | - |
| 1777688630 | 14.44° C | 83% | 1017.4 hPa | 0 mm | - | 21 W/m² | - |
| 1777688327 | 15° C | 83% | 1017.2 hPa | 0 mm | - | 24 W/m² | - |
| 1777688024 | 15.56° C | 81% | 1017.2 hPa | 0 mm | - | 27 W/m² | - |
| 1777687721 | 16.11° C | 79% | 1017.3 hPa | 0 mm | - | 39 W/m² | - |
| 1777687419 | 16.11° C | 78% | 1017.3 hPa | 0 mm | - | 47 W/m² | - |
| 1777687116 | 16.67° C | 76% | 1017.1 hPa | 0 mm | - | 55 W/m² | - |
| 1777686813 | 17.22° C | 76% | 1017.1 hPa | 0 mm | - | 64 W/m² | - |
* Rain latest hour (hover to see other rain measurements)
** Current wind speed in m/s (hover to see current wind gust speed)